Regional Weather Roundup
Issued by NWS Goodland, KS

Home | Current Version | Previous Version | Graphics & Text | Print | Product List | Glossary On
Versions: 1 2 3 4 5 6 7 8 9 10 11 12 13 14 15 16 17 18 19 20 21 22 23 24 25 26 27 28 29 30 31 32 33 34 35 36 37 38 39 40 41 42 43 44 45 46 47 48 49 50
290
ASUS43 KGLD 220359
RWRGLD

GOODLAND FORECAST AREA HOURLY WEATHER ROUNDUP
NATIONAL WEATHER SERVICE GOODLAND KS
1000 PM MDT MON AUG 21 2017

...OFFICIAL OBSERVATIONS...

CITY           SKY/WX    TMP DP  RH WIND       PRES   REMARKS
GOODLAND KS    CLEAR     73  68  84 N13       30.10R
HILL CITY KS   MOCLDY    75  68  78 NW5       29.99R
IMPERIAL NEB   CLEAR     67  62  84 N9        30.13R
MCCOOK NEB     CLEAR     74  66  76 N20G30    30.06R
AKRON CO       CLEAR     62  53  72 N8        30.23R
BURLINGTON CO  CLEAR     70  64  81 N8        30.16R
LIMON CO       CLOUDY    61  55  81 N6        30.26R
$$

...UNOFFICIAL OBSERVATIONS...

CITY           SKY/WX    TMP DP  RH WIND       PRES   REMARKS
LENORA KS        N/A     74  32  21 CALM        N/A
NORTON KS      CLEAR     73  64  73 N15G21    30.01R
TRENTON NEB      N/A     71  32  23 N8          N/A
KIT CARSON CO    N/A     69  63  81 MISG        N/A
YUMA CO        FAIR      63  50  63 N8        30.19R
$$




USA.gov is the U.S. government's official web portal to all federal, state and local government web resources and services.